This is the latest recevied weather packets stored in our database for station/object KC1HBM. If no packets are shown the sender has not sent any weather packets the latest 10 day(s).
| Time | Temp. | Humidity | Pressure | Rain* | Wind** | Luminosity | Snow |
|---|---|---|---|---|---|---|---|
| 1777736800 | 8.89° C | 96% | 1009.8 hPa | 0 mm | - | 100 W/m² | - |
| 1777736172 | 8.89° C | 97% | 1009.7 hPa | 0 mm | - | 92 W/m² | - |
| 1777735869 | 8.89° C | 96% | 1009.8 hPa | 0 mm | - | 95 W/m² | - |
| 1777735566 | 8.89° C | 97% | 1009.9 hPa | 0 mm | - | 81 W/m² | - |
| 1777735264 | 8.33° C | 97% | 1009.9 hPa | 0 mm | - | 129 W/m² | - |
| 1777734961 | 8.33° C | 97% | 1010.3 hPa | 0 mm | - | 141 W/m² | - |
| 1777734658 | 8.33° C | 97% | 1010.3 hPa | 0 mm | - | 114 W/m² | - |
| 1777734355 | 8.33° C | 98% | 1010.1 hPa | 0 mm | - | 206 W/m² | - |
| 1777734051 | 8.33° C | 97% | 1010.2 hPa | 0 mm | - | 176 W/m² | - |
| 1777733748 | 7.78° C | 97% | 1010.3 hPa | 0 mm | - | 331 W/m² | - |
| 1777733445 | 7.78° C | 98% | 1010 hPa | 0 mm | - | 117 W/m² | - |
| 1777733141 | 7.78° C | 98% | 1009.8 hPa | 0 mm | - | 78 W/m² | - |
| 1777732837 | 7.78° C | 97% | 1010.2 hPa | 0 mm | - | 86 W/m² | - |
| 1777732534 | 7.78° C | 96% | 1010.5 hPa | 0 mm | - | 100 W/m² | - |
| 1777732233 | 7.78° C | 96% | 1010.6 hPa | 0 mm | - | 142 W/m² | - |
| 1777731929 | 7.78° C | 96% | 1010.8 hPa | 1.27 mm | - | 100 W/m² | - |
| 1777731626 | 7.78° C | 95% | 1010.9 hPa | 0 mm | - | 58 W/m² | - |
| 1777731323 | 7.78° C | 95% | 1010.5 hPa | 0 mm | - | 46 W/m² | - |
| 1777731021 | 7.78° C | 94% | 1010.6 hPa | 0 mm | - | 32 W/m² | - |
| 1777730719 | 7.78° C | 94% | 1010.9 hPa | 0 mm | - | 49 W/m² | - |
| 1777730415 | 7.78° C | 94% | 1010.6 hPa | 0 mm | - | 65 W/m² | - |
| 1777730111 | 7.78° C | 94% | 1010.8 hPa | 0 mm | - | 49 W/m² | - |
| 1777729808 | 7.78° C | 94% | 1010.8 hPa | 0 mm | - | 74 W/m² | - |
| 1777729505 | 7.78° C | 94% | 1010.8 hPa | 0 mm | - | 89 W/m² | - |
| 1777729201 | 7.22° C | 95% | 1010.9 hPa | 0 mm | - | 216 W/m² | - |
* Rain latest hour (hover to see other rain measurements)
** Current wind speed in m/s (hover to see current wind gust speed)